Location: Proctor
(47.8934°N, 114.3048°W)
Time: 11:57:55
(UTC+00:00)

AO-91 - Pass Details

Date: 29 June 2022
Orbit: 450 x 797 km, 97.7° (Epoch: 11 August)

Event Time Altitude Azimuth Distance (km) Brightness Sun altitude
Rises 06:43:19 0° 10° (N) 2,578 ? -17.7°
Reaches altitude 10° 06:45:27 10° 8° (N) 1,657 ? -17.8°
Maximum altitude 06:48:56 65° 286° (WNW) 510 ? -17.9°
Enters shadow 06:50:00 39° 219° (SW) 700 ? -18.0°
